Time,TemperatureF,DewpointF,PressureIn,WindDirection,WindDirectionDegrees,WindSpeedMPH,WindSpeedGustMPH,Humidity,HourlyPrecipIn,Conditions,Clouds,dailyrainin,SoftwareType,DateUTC
2013-02-08 00:00:00,35.8,35.3,30.11,WNW,288,0.0,6.0,98,0.00,,,0.91,WeatherCatV1.02B3,2013-02-08 05:00:00,
2013-02-08 00:05:00,35.7,35.2,30.11,SSW,195,3.0,8.0,98,0.00,,,0.00,WeatherCatV1.02B3,2013-02-08 05:05:00,
2013-02-08 00:10:00,35.8,35.3,30.11,NE,46,1.0,11.0,98,0.00,,,0.00,WeatherCatV1.02B3,2013-02-08 05:10:00,
2013-02-08 00:15:00,35.8,35.3,30.11,NE,39,5.0,13.0,98,0.00,,,0.00,WeatherCatV1.02B3,2013-02-08 05:15:00,
2013-02-08 00:20:00,35.8,35.3,30.11,ENE,72,4.0,6.0,98,0.00,,,0.00,WeatherCatV1.02B3,2013-02-08 05:20:00,
2013-02-08 00:25:00,35.8,35.3,30.11,NE,48,3.0,12.0,98,0.00,,,0.00,WeatherCatV1.02B3,2013-02-08 05:25:00,
2013-02-08 00:30:00,35.8,35.3,30.10,NNE,19,5.0,14.0,98,0.00,,,0.00,WeatherCatV1.02B3,2013-02-08 05:30:00,
2013-02-08 00:35:00,35.8,35.3,30.10,NE,55,0.0,11.0,98,0.00,,,0.00,WeatherCatV1.02B3,2013-02-08 05:35:00,
2013-02-08 00:40:00,35.8,35.3,30.10,NE,52,4.0,11.0,98,0.00,,,0.00,WeatherCatV1.02B3,2013-02-08 05:40:00,
2013-02-08 00:45:00,35.7,35.2,30.09,NNW,341,7.0,8.0,98,0.00,,,0.00,WeatherCatV1.02B3,2013-02-08 05:45:00,
2013-02-08 00:50:00,35.7,35.4,30.09,ENE,59,7.0,12.0,99,0.00,,,0.00,WeatherCatV1.02B3,2013-02-08 05:50:00,
2013-02-08 00:55:00,35.8,35.5,30.09,ESE,119,5.0,15.0,99,0.00,,,0.00,WeatherCatV1.02B3,2013-02-08 05:55:00,
2013-02-08 01:00:00,35.7,35.4,30.09,NNE,18,0.0,12.0,99,0.00,,,0.00,WeatherCatV1.02B3,2013-02-08 06:00:00,
2013-02-08 01:05:00,35.7,35.4,30.08,South,176,1.0,9.0,99,0.00,,,0.00,WeatherCatV1.02B3,2013-02-08 06:05:00,
2013-02-08 01:10:00,35.7,35.4,30.08,NNW,336,4.0,9.0,99,0.00,,,0.00,WeatherCatV1.02B3,2013-02-08 06:10:00,
2013-02-08 01:15:00,35.6,35.1,30.08,North,355,2.0,6.0,98,0.00,,,0.00,WeatherCatV1.02B3,2013-02-08 06:15:00,
2013-02-08 01:20:00,35.5,35.0,30.08,ENE,68,9.0,9.0,98,0.00,,,0.00,WeatherCatV1.02B3,2013-02-08 06:20:00,
2013-02-08 01:25:00,35.4,35.1,30.09,ENE,57,3.0,4.0,99,0.00,,,0.00,WeatherCatV1.02B3,2013-02-08 06:25:00,
2013-02-08 01:30:00,35.4,35.1,30.08,NNE,26,2.0,12.0,99,0.00,,,0.00,WeatherCatV1.02B3,2013-02-08 06:30:00,
2013-02-08 01:35:00,35.3,35.0,30.08,NE,56,5.0,10.0,99,0.00,,,0.00,WeatherCatV1.02B3,2013-02-08 06:35:00,
2013-02-08 01:40:00,35.3,35.0,30.08,East,94,6.0,14.0,99,0.00,,,0.00,WeatherCatV1.02B3,2013-02-08 06:40:00,
2013-02-08 01:45:00,35.3,35.0,30.08,East,88,3.0,9.0,99,0.00,,,0.00,WeatherCatV1.02B3,2013-02-08 06:45:00,
2013-02-08 01:50:00,35.3,35.0,30.08,SSE,162,3.0,4.0,99,0.00,,,0.00,WeatherCatV1.02B3,2013-02-08 06:50:00,
2013-02-08 01:55:00,35.4,35.1,30.08,ESE,123,1.0,9.0,99,0.00,,,0.00,WeatherCatV1.02B3,2013-02-08 06:55:00,
2013-02-08 02:00:00,35.4,35.1,30.07,NW,309,4.0,5.0,99,0.00,,,0.00,WeatherCatV1.02B3,2013-02-08 07:00:00,
2013-02-08 02:05:00,35.3,35.0,30.07,SE,126,0.0,3.0,99,0.00,,,0.00,WeatherCatV1.02B3,2013-02-08 07:05:00,
2013-02-08 02:10:00,35.4,35.1,30.07,NNE,30,4.0,11.0,99,0.00,,,0.00,WeatherCatV1.02B3,2013-02-08 07:10:00,
2013-02-08 02:15:00,35.4,35.1,30.07,NNE,32,7.0,12.0,99,0.00,,,0.00,WeatherCatV1.02B3,2013-02-08 07:15:00,
2013-02-08 02:20:00,35.4,35.1,30.07,NNE,18,0.0,6.0,99,0.00,,,0.00,WeatherCatV1.02B3,2013-02-08 07:20:00,
2013-02-08 02:25:00,35.5,35.2,30.07,NE,37,5.0,10.0,99,0.00,,,0.00,WeatherCatV1.02B3,2013-02-08 07:25:00,
2013-02-08 02:30:00,35.6,35.3,30.07,NNW,333,6.0,7.0,99,0.00,,,0.00,WeatherCatV1.02B3,2013-02-08 07:30:00,
2013-02-08 02:35:00,35.7,35.4,30.07,NE,35,0.0,6.0,99,0.00,,,0.00,WeatherCatV1.02B3,2013-02-08 07:35:00,
2013-02-08 02:40:00,35.7,35.4,30.07,NNE,24,6.0,6.0,99,0.00,,,0.00,WeatherCatV1.02B3,2013-02-08 07:40:00,
2013-02-08 02:45:00,35.7,35.4,30.06,NNE,32,5.0,10.0,99,0.00,,,0.01,WeatherCatV1.02B3,2013-02-08 07:45:00,
2013-02-08 02:50:00,35.7,35.4,30.06,NW,315,3.0,7.0,99,0.00,,,0.01,WeatherCatV1.02B3,2013-02-08 07:50:00,
2013-02-08 02:55:00,35.8,35.5,30.07,WNW,291,2.0,3.0,99,0.00,,,0.01,WeatherCatV1.02B3,2013-02-08 07:55:00,
2013-02-08 03:00:00,35.9,35.6,30.07,NNW,331,4.0,5.0,99,0.00,,,0.01,WeatherCatV1.02B3,2013-02-08 08:00:00,
2013-02-08 03:05:00,35.9,35.6,30.06,NNW,327,0.0,2.0,99,0.00,,,0.01,WeatherCatV1.02B3,2013-02-08 08:05:00,
2013-02-08 03:10:00,36.0,35.7,30.06,NNW,340,0.0,3.0,99,0.00,,,0.01,WeatherCatV1.02B3,2013-02-08 08:10:00,
2013-02-08 03:15:00,36.0,35.7,30.06,WNW,284,0.0,6.0,99,0.00,,,0.01,WeatherCatV1.02B3,2013-02-08 08:15:00,
2013-02-08 03:20:00,35.9,35.6,30.06,WNW,282,1.0,1.0,99,0.00,,,0.02,WeatherCatV1.02B3,2013-02-08 08:20:00,
2013-02-08 03:25:00,35.9,35.6,30.06,WNW,283,0.0,1.0,99,0.00,,,0.02,WeatherCatV1.02B3,2013-02-08 08:25:00,
2013-02-08 03:30:00,35.9,35.6,30.06,SSW,194,0.0,1.0,99,0.00,,,0.02,WeatherCatV1.02B3,2013-02-08 08:30:00,
2013-02-08 03:35:00,36.0,35.7,30.06,West,272,0.0,0.0,99,0.00,,,0.02,WeatherCatV1.02B3,2013-02-08 08:35:00,
2013-02-08 03:40:00,36.0,35.7,30.06,West,272,0.0,0.0,99,0.00,,,0.02,WeatherCatV1.02B3,2013-02-08 08:40:00,
2013-02-08 03:45:00,36.0,35.7,30.05,West,272,2.0,2.0,99,0.00,,,0.02,WeatherCatV1.02B3,2013-02-08 08:45:00,
2013-02-08 03:50:00,36.0,35.7,30.05,NW,320,0.0,1.0,99,0.00,,,0.02,WeatherCatV1.02B3,2013-02-08 08:50:00,
2013-02-08 03:55:00,36.1,35.8,30.05,NNW,342,0.0,2.0,99,0.00,,,0.02,WeatherCatV1.02B3,2013-02-08 08:55:00,
2013-02-08 04:00:00,36.1,35.8,30.05,NNW,341,0.0,1.0,99,0.00,,,0.02,WeatherCatV1.02B3,2013-02-08 09:00:00,
2013-02-08 04:05:00,36.1,35.8,30.05,NNW,342,0.0,0.0,99,0.00,,,0.02,WeatherCatV1.02B3,2013-02-08 09:05:00,
2013-02-08 04:10:00,36.1,35.8,30.05,NNW,342,0.0,0.0,99,0.00,,,0.02,WeatherCatV1.02B3,2013-02-08 09:10:00,
2013-02-08 04:15:00,36.1,35.8,30.06,NNW,341,0.0,0.0,99,0.00,,,0.02,WeatherCatV1.02B3,2013-02-08 09:15:00,
2013-02-08 04:20:00,36.1,35.8,30.06,NNW,342,0.0,1.0,99,0.00,,,0.02,WeatherCatV1.02B3,2013-02-08 09:20:00,
2013-02-08 04:25:00,36.1,35.8,30.06,NNW,342,0.0,0.0,99,0.00,,,0.02,WeatherCatV1.02B3,2013-02-08 09:25:00,
2013-02-08 04:30:00,36.1,35.8,30.05,NNW,342,0.0,0.0,99,0.00,,,0.02,WeatherCatV1.02B3,2013-02-08 09:30:00,
2013-02-08 04:35:00,36.2,35.9,30.06,NNW,341,0.0,0.0,99,0.00,,,0.02,WeatherCatV1.02B3,2013-02-08 09:35:00,
2013-02-08 04:40:00,36.2,35.9,30.05,NNW,342,0.0,0.0,99,0.00,,,0.02,WeatherCatV1.02B3,2013-02-08 09:40:00,
2013-02-08 04:45:00,36.2,35.9,30.06,NNW,341,0.0,1.0,99,0.00,,,0.02,WeatherCatV1.02B3,2013-02-08 09:45:00,
2013-02-08 04:50:00,36.2,35.9,30.06,NNW,341,0.0,0.0,99,0.00,,,0.02,WeatherCatV1.02B3,2013-02-08 09:50:00,
2013-02-08 04:55:00,36.1,35.8,30.05,NNW,342,0.0,0.0,99,0.00,,,0.02,WeatherCatV1.02B3,2013-02-08 09:55:00,
2013-02-08 05:00:00,36.0,35.7,30.05,NNW,342,0.0,0.0,99,0.00,,,0.02,WeatherCatV1.02B3,2013-02-08 10:00:00,
2013-02-08 05:05:00,35.9,35.6,30.05,NNW,341,0.0,0.0,99,0.00,,,0.02,WeatherCatV1.02B3,2013-02-08 10:05:00,
2013-02-08 05:10:00,35.8,35.5,30.05,NNW,342,0.0,0.0,99,0.00,,,0.02,WeatherCatV1.02B3,2013-02-08 10:10:00,
2013-02-08 05:15:00,35.7,35.4,30.05,NNW,342,0.0,0.0,99,0.00,,,0.02,WeatherCatV1.02B3,2013-02-08 10:15:00,
2013-02-08 05:20:00,35.7,35.4,30.05,NNW,341,0.0,0.0,99,0.00,,,0.02,WeatherCatV1.02B3,2013-02-08 10:20:00,
2013-02-08 05:25:00,35.7,35.4,30.05,NNW,342,0.0,0.0,99,0.00,,,0.02,WeatherCatV1.02B3,2013-02-08 10:25:00,
2013-02-08 05:30:00,35.7,35.4,30.05,NNW,342,0.0,0.0,99,0.00,,,0.02,WeatherCatV1.02B3,2013-02-08 10:30:00,
2013-02-08 05:35:00,35.8,35.5,30.05,NNW,342,0.0,0.0,99,0.00,,,0.02,WeatherCatV1.02B3,2013-02-08 10:35:00,
2013-02-08 05:40:00,35.9,35.6,30.05,NNW,342,0.0,0.0,99,0.00,,,0.02,WeatherCatV1.02B3,2013-02-08 10:40:00,
2013-02-08 05:45:00,35.9,35.6,30.05,NNW,342,0.0,0.0,99,0.00,,,0.02,WeatherCatV1.02B3,2013-02-08 10:45:00,
2013-02-08 05:50:00,35.9,35.6,30.05,NNW,341,0.0,0.0,99,0.00,,,0.02,WeatherCatV1.02B3,2013-02-08 10:50:00,
2013-02-08 05:55:00,35.9,35.6,30.05,NNW,341,0.0,0.0,99,0.00,,,0.02,WeatherCatV1.02B3,2013-02-08 10:55:00,
2013-02-08 06:00:00,35.9,35.6,30.05,NNW,342,0.0,0.0,99,0.00,,,0.02,WeatherCatV1.02B3,2013-02-08 11:00:00,
2013-02-08 06:05:00,35.9,35.6,30.05,NNW,342,0.0,0.0,99,0.00,,,0.02,WeatherCatV1.02B3,2013-02-08 11:05:00,
2013-02-08 06:10:00,35.9,35.6,30.05,NNW,341,0.0,0.0,99,0.00,,,0.02,WeatherCatV1.02B3,2013-02-08 11:10:00,
2013-02-08 06:15:00,35.9,35.6,30.04,NNW,342,0.0,0.0,99,0.00,,,0.02,WeatherCatV1.02B3,2013-02-08 11:15:00,
2013-02-08 06:20:00,35.9,35.6,30.04,NNW,342,1.0,1.0,99,0.00,,,0.02,WeatherCatV1.02B3,2013-02-08 11:20:00,
2013-02-08 06:25:00,35.8,35.5,30.04,NNW,341,0.0,1.0,99,0.00,,,0.02,WeatherCatV1.02B3,2013-02-08 11:25:00,
2013-02-08 06:30:00,35.7,35.4,30.04,NNW,341,1.0,1.0,99,0.00,,,0.02,WeatherCatV1.02B3,2013-02-08 11:30:00,
2013-02-08 06:35:00,35.7,35.4,30.04,NNW,342,0.0,1.0,99,0.00,,,0.02,WeatherCatV1.02B3,2013-02-08 11:35:00,
2013-02-08 06:40:00,35.8,35.5,30.04,NNW,342,0.0,0.0,99,0.00,,,0.02,WeatherCatV1.02B3,2013-02-08 11:40:00,
2013-02-08 06:45:00,35.7,35.4,30.04,NNW,341,0.0,1.0,99,0.00,,,0.02,WeatherCatV1.02B3,2013-02-08 11:45:00,
2013-02-08 06:50:00,35.8,35.5,30.04,NNW,342,0.0,1.0,99,0.00,,,0.02,WeatherCatV1.02B3,2013-02-08 11:50:00,
2013-02-08 06:55:00,35.7,35.4,30.05,WNW,290,3.0,3.0,99,0.00,,,0.02,WeatherCatV1.02B3,2013-02-08 11:55:00,
2013-02-08 07:00:00,35.8,35.5,30.05,WNW,295,0.0,0.0,99,0.00,,,0.02,WeatherCatV1.02B3,2013-02-08 12:00:00,
2013-02-08 07:05:00,36.0,35.7,30.05,SSE,150,0.0,0.0,99,0.00,,,0.02,WeatherCatV1.02B3,2013-02-08 12:05:00,
2013-02-08 07:10:00,36.1,35.8,30.05,ESE,102,0.0,2.0,99,0.00,,,0.02,WeatherCatV1.02B3,2013-02-08 12:10:00,
2013-02-08 07:15:00,36.4,36.1,30.05,North,0,0.0,3.0,99,0.00,,,0.02,WeatherCatV1.02B3,2013-02-08 12:15:00,
2013-02-08 07:20:00,36.6,36.3,30.04,North,0,0.0,0.0,99,0.00,,,0.02,WeatherCatV1.02B3,2013-02-08 12:20:00,
2013-02-08 07:25:00,36.5,36.2,30.04,North,0,0.0,1.0,99,0.00,,,0.02,WeatherCatV1.02B3,2013-02-08 12:25:00,
2013-02-08 07:30:00,36.4,36.1,30.05,North,0,1.0,1.0,99,0.00,,,0.02,WeatherCatV1.02B3,2013-02-08 12:30:00,
2013-02-08 07:35:00,36.5,36.2,30.05,North,0,0.0,0.0,99,0.00,,,0.02,WeatherCatV1.02B3,2013-02-08 12:35:00,
2013-02-08 07:40:00,36.9,36.6,30.05,NNE,19,2.0,5.0,99,0.00,,,0.02,WeatherCatV1.02B3,2013-02-08 12:40:00,
2013-02-08 07:45:00,37.7,37.4,30.05,NNE,26,0.0,2.0,99,0.00,,,0.02,WeatherCatV1.02B3,2013-02-08 12:45:00,
2013-02-08 07:50:00,38.0,37.7,30.05,NNW,334,2.0,4.0,99,0.00,,,0.02,WeatherCatV1.02B3,2013-02-08 12:50:00,
2013-02-08 07:55:00,38.3,38.0,30.05,East,80,2.0,2.0,99,0.00,,,0.02,WeatherCatV1.02B3,2013-02-08 12:55:00,
2013-02-08 08:00:00,38.4,38.1,30.06,WNW,294,0.0,3.0,99,0.00,,,0.02,WeatherCatV1.02B3,2013-02-08 13:00:00,
2013-02-08 08:05:00,38.5,38.2,30.06,SSW,194,0.0,3.0,99,0.00,,,0.02,WeatherCatV1.02B3,2013-02-08 13:05:00,
2013-02-08 08:10:00,38.6,38.3,30.06,ENE,65,0.0,2.0,99,0.00,,,0.02,WeatherCatV1.02B3,2013-02-08 13:10:00,
2013-02-08 08:15:00,38.7,38.4,30.07,West,265,2.0,6.0,99,0.00,,,0.02,WeatherCatV1.02B3,2013-02-08 13:15:00,
2013-02-08 08:20:00,39.0,38.7,30.07,NW,325,0.0,3.0,99,0.00,,,0.02,WeatherCatV1.02B3,2013-02-08 13:20:00,
2013-02-08 08:25:00,39.3,39.0,30.07,WSW,256,0.0,0.0,99,0.00,,,0.02,WeatherCatV1.02B3,2013-02-08 13:25:00,
2013-02-08 08:30:00,39.5,39.2,30.07,North,0,0.0,2.0,99,0.00,,,0.02,WeatherCatV1.02B3,2013-02-08 13:30:00,
2013-02-08 08:35:00,39.2,38.9,30.07,SSW,205,3.0,4.0,99,0.00,,,0.02,WeatherCatV1.02B3,2013-02-08 13:35:00,
2013-02-08 08:40:00,38.7,38.4,30.07,NE,40,0.0,4.0,99,0.00,,,0.02,WeatherCatV1.02B3,2013-02-08 13:40:00,
2013-02-08 08:45:00,38.8,38.5,30.07,WNW,288,0.0,5.0,99,0.00,,,0.02,WeatherCatV1.02B3,2013-02-08 13:45:00,
2013-02-08 08:50:00,39.1,38.8,30.07,NNE,18,1.0,4.0,99,0.00,,,0.02,WeatherCatV1.02B3,2013-02-08 13:50:00,
2013-02-08 08:55:00,39.3,39.0,30.07,WNW,303,0.0,0.0,99,0.00,,,0.02,WeatherCatV1.02B3,2013-02-08 13:55:00,
2013-02-08 09:00:00,39.5,39.2,30.07,SSW,199,2.0,3.0,99,0.00,,,0.02,WeatherCatV1.02B3,2013-02-08 14:00:00,
2013-02-08 09:06:00,39.7,39.4,30.07,WNW,293,0.0,3.0,99,0.00,,,0.02,WeatherCatV1.02B3,2013-02-08 14:06:00,
2013-02-08 09:11:00,40.0,39.7,30.07,ENE,69,2.0,3.0,99,0.00,,,0.02,WeatherCatV1.02B3,2013-02-08 14:11:00,
2013-02-08 09:16:00,40.2,39.9,30.07,North,0,3.0,5.0,99,0.00,,,0.02,WeatherCatV1.02B3,2013-02-08 14:16:00,
2013-02-08 09:21:00,40.4,40.1,30.07,SW,228,2.0,6.0,99,0.00,,,0.02,WeatherCatV1.02B3,2013-02-08 14:21:00,
2013-02-08 09:26:00,40.2,39.9,30.08,North,350,0.0,3.0,99,0.00,,,0.02,WeatherCatV1.02B3,2013-02-08 14:26:00,
2013-02-08 09:31:00,40.1,39.8,30.08,West,259,4.0,4.0,99,0.00,,,0.02,WeatherCatV1.02B3,2013-02-08 14:31:00,
2013-02-08 09:36:00,39.9,39.6,30.08,NE,49,1.0,5.0,99,0.00,,,0.02,WeatherCatV1.02B3,2013-02-08 14:36:00,
2013-02-08 09:41:00,39.6,39.3,30.08,NNW,345,1.0,7.0,99,0.00,,,0.02,WeatherCatV1.02B3,2013-02-08 14:41:00,
2013-02-08 09:46:00,39.3,39.0,30.08,WNW,292,5.0,6.0,99,0.00,,,0.02,WeatherCatV1.02B3,2013-02-08 14:46:00,
2013-02-08 09:51:00,39.1,38.8,30.08,North,355,5.0,9.0,99,0.00,,,0.02,WeatherCatV1.02B3,2013-02-08 14:51:00,
2013-02-08 09:56:00,39.2,38.9,30.08,WSW,242,6.0,12.0,99,0.00,,,0.02,WeatherCatV1.02B3,2013-02-08 14:56:00,
2013-02-08 10:01:00,39.2,38.9,30.08,North,10,5.0,9.0,99,0.00,,,0.02,WeatherCatV1.02B3,2013-02-08 15:01:00,
2013-02-08 10:06:00,39.1,38.8,30.08,NNW,338,0.0,2.0,99,0.00,,,0.02,WeatherCatV1.02B3,2013-02-08 15:06:00,
2013-02-08 10:11:00,39.1,38.8,30.08,SSE,167,2.0,5.0,99,0.00,,,0.02,WeatherCatV1.02B3,2013-02-08 15:11:00,
2013-02-08 10:16:00,39.2,38.9,30.08,WNW,303,5.0,5.0,99,0.00,,,0.02,WeatherCatV1.02B3,2013-02-08 15:16:00,
2013-02-08 10:21:00,39.3,39.0,30.08,NW,310,0.0,1.0,99,0.00,,,0.02,WeatherCatV1.02B3,2013-02-08 15:21:00,
2013-02-08 10:26:00,39.5,39.2,30.08,NNW,331,3.0,7.0,99,0.00,,,0.02,WeatherCatV1.02B3,2013-02-08 15:26:00,
2013-02-08 10:31:00,39.6,39.3,30.09,NW,315,1.0,5.0,99,0.00,,,0.02,WeatherCatV1.02B3,2013-02-08 15:31:00,
2013-02-08 10:36:00,39.7,39.4,30.08,WNW,284,0.0,4.0,99,0.00,,,0.02,WeatherCatV1.02B3,2013-02-08 15:36:00,
2013-02-08 10:41:00,39.8,39.5,30.09,NW,313,0.0,7.0,99,0.00,,,0.02,WeatherCatV1.02B3,2013-02-08 15:41:00,
2013-02-08 10:46:00,39.8,39.5,30.09,South,186,0.0,5.0,99,0.00,,,0.02,WeatherCatV1.02B3,2013-02-08 15:46:00,
2013-02-08 10:51:00,39.8,39.5,30.09,North,9,10.0,13.0,99,0.00,,,0.02,WeatherCatV1.02B3,2013-02-08 15:51:00,
2013-02-08 10:56:00,39.9,39.6,30.09,NE,51,13.0,13.0,99,0.00,,,0.02,WeatherCatV1.02B3,2013-02-08 15:56:00,
2013-02-08 11:01:00,39.8,39.5,30.10,NNW,332,10.0,15.0,99,0.00,,,0.03,WeatherCatV1.02B3,2013-02-08 16:01:00,
2013-02-08 11:06:00,39.7,39.4,30.09,WSW,250,2.0,13.0,99,0.00,,,0.03,WeatherCatV1.02B3,2013-02-08 16:06:00,
2013-02-08 11:11:00,39.7,39.4,30.09,NNW,329,6.0,6.0,99,0.00,,,0.03,WeatherCatV1.02B3,2013-02-08 16:11:00,
2013-02-08 11:16:00,39.8,39.5,30.09,West,281,5.0,12.0,99,0.00,,,0.03,WeatherCatV1.02B3,2013-02-08 16:16:00,
2013-02-08 11:21:00,39.9,39.6,30.09,North,5,5.0,5.0,99,0.00,,,0.03,WeatherCatV1.02B3,2013-02-08 16:21:00,
2013-02-08 11:26:00,40.2,39.9,30.09,NNE,29,0.0,7.0,99,0.00,,,0.03,WeatherCatV1.02B3,2013-02-08 16:26:00,
2013-02-08 11:31:00,40.2,39.9,30.10,NE,36,3.0,12.0,99,0.00,,,0.03,WeatherCatV1.02B3,2013-02-08 16:31:00,
2013-02-08 11:36:00,40.2,39.9,30.09,NNE,33,7.0,12.0,99,0.00,,,0.03,WeatherCatV1.02B3,2013-02-08 16:36:00,
2013-02-08 11:41:00,40.4,40.1,30.09,ENE,61,11.0,18.0,99,0.00,,,0.03,WeatherCatV1.02B3,2013-02-08 16:41:00,
2013-02-08 11:46:00,40.6,40.3,30.09,WNW,299,6.0,17.0,99,0.00,,,0.03,WeatherCatV1.02B3,2013-02-08 16:46:00,
2013-02-08 11:51:00,40.6,40.3,30.09,NNE,22,5.0,12.0,99,0.00,,,0.03,WeatherCatV1.02B3,2013-02-08 16:51:00,
2013-02-08 11:56:00,40.5,40.2,30.09,NNW,334,4.0,6.0,99,0.00,,,0.03,WeatherCatV1.02B3,2013-02-08 16:56:00,
2013-02-08 12:01:00,40.4,40.1,30.09,NNW,348,6.0,11.0,99,0.00,,,0.03,WeatherCatV1.02B3,2013-02-08 17:01:00,
2013-02-08 12:06:00,40.3,39.8,30.09,NE,44,3.0,15.0,98,0.00,,,0.03,WeatherCatV1.02B3,2013-02-08 17:06:00,
2013-02-08 12:11:00,40.1,39.6,30.09,NNE,23,6.0,16.0,98,0.00,,,0.03,WeatherCatV1.02B3,2013-02-08 17:11:00,
2013-02-08 12:16:00,40.1,39.6,30.08,NE,36,9.0,14.0,98,0.00,,,0.03,WeatherCatV1.02B3,2013-02-08 17:16:00,
2013-02-08 12:21:00,40.1,39.6,30.09,North,0,1.0,15.0,98,0.00,,,0.03,WeatherCatV1.02B3,2013-02-08 17:21:00,
2013-02-08 12:26:00,40.0,39.5,30.08,NNW,333,4.0,12.0,98,0.00,,,0.03,WeatherCatV1.02B3,2013-02-08 17:26:00,
2013-02-08 12:31:00,40.0,39.5,30.09,NNE,13,10.0,16.0,98,0.00,,,0.03,WeatherCatV1.02B3,2013-02-08 17:31:00,
2013-02-08 12:36:00,39.9,39.4,30.08,NW,313,5.0,11.0,98,0.00,,,0.03,WeatherCatV1.02B3,2013-02-08 17:36:00,
2013-02-08 12:41:00,39.8,39.3,30.08,North,350,0.0,15.0,98,0.00,,,0.03,WeatherCatV1.02B3,2013-02-08 17:41:00,
2013-02-08 12:46:00,39.7,39.2,30.08,NNW,346,6.0,9.0,98,0.00,,,0.03,WeatherCatV1.02B3,2013-02-08 17:46:00,
2013-02-08 12:51:00,39.6,39.1,30.07,NNE,15,9.0,14.0,98,0.00,,,0.03,WeatherCatV1.02B3,2013-02-08 17:51:00,
2013-02-08 12:56:00,39.6,39.1,30.07,NE,45,7.0,9.0,98,0.00,,,0.03,WeatherCatV1.02B3,2013-02-08 17:56:00,
2013-02-08 13:01:00,39.5,39.0,30.07,NNE,24,2.0,10.0,98,0.00,,,0.03,WeatherCatV1.02B3,2013-02-08 18:01:00,
2013-02-08 13:06:00,39.4,38.9,30.07,NNW,348,10.0,16.0,98,0.00,,,0.03,WeatherCatV1.02B3,2013-02-08 18:06:00,
2013-02-08 13:11:00,39.3,38.8,30.08,NE,38,6.0,18.0,98,0.00,,,0.03,WeatherCatV1.02B3,2013-02-08 18:11:00,
2013-02-08 13:16:00,39.1,38.6,30.07,NE,56,3.0,11.0,98,0.00,,,0.03,WeatherCatV1.02B3,2013-02-08 18:16:00,
2013-02-08 13:21:00,39.0,38.5,30.07,North,355,12.0,18.0,98,0.00,,,0.03,WeatherCatV1.02B3,2013-02-08 18:21:00,
2013-02-08 13:26:00,38.9,38.4,30.07,NE,42,8.0,11.0,98,0.00,,,0.03,WeatherCatV1.02B3,2013-02-08 18:26:00,
2013-02-08 13:31:00,38.8,38.3,30.07,NNW,336,6.0,26.0,98,0.00,,,0.03,WeatherCatV1.02B3,2013-02-08 18:31:00,
2013-02-08 13:36:00,38.6,38.1,30.07,SSE,162,1.0,15.0,98,0.00,,,0.03,WeatherCatV1.02B3,2013-02-08 18:36:00,
2013-02-08 13:41:00,38.6,38.1,30.06,North,349,7.0,11.0,98,0.00,,,0.03,WeatherCatV1.02B3,2013-02-08 18:41:00,
2013-02-08 13:46:00,38.6,38.1,30.07,NNE,33,2.0,12.0,98,0.00,,,0.03,WeatherCatV1.02B3,2013-02-08 18:46:00,
2013-02-08 13:51:00,38.5,38.0,30.07,North,0,13.0,23.0,98,0.00,,,0.03,WeatherCatV1.02B3,2013-02-08 18:51:00,
2013-02-08 13:56:00,38.3,37.8,30.07,NW,318,5.0,19.0,98,0.00,,,0.03,WeatherCatV1.02B3,2013-02-08 18:56:00,
2013-02-08 14:01:00,38.2,37.7,30.07,NNW,330,6.0,6.0,98,0.00,,,0.03,WeatherCatV1.02B3,2013-02-08 19:01:00,
2013-02-08 14:06:00,38.2,37.4,30.07,ENE,74,4.0,18.0,97,0.00,,,0.03,WeatherCatV1.02B3,2013-02-08 19:06:00,
2013-02-08 14:11:00,38.2,37.2,30.08,WNW,292,18.0,18.0,96,0.00,,,0.03,WeatherCatV1.02B3,2013-02-08 19:11:00,
2013-02-08 14:16:00,38.2,37.2,30.08,North,355,10.0,16.0,96,0.00,,,0.03,WeatherCatV1.02B3,2013-02-08 19:16:00,
2013-02-08 14:21:00,38.3,37.3,30.07,NE,35,4.0,13.0,96,0.00,,,0.03,WeatherCatV1.02B3,2013-02-08 19:21:00,
2013-02-08 14:26:00,38.3,37.3,30.07,NW,323,7.0,7.0,96,0.00,,,0.03,WeatherCatV1.02B3,2013-02-08 19:26:00,
2013-02-08 14:31:00,38.3,37.0,30.08,NNE,17,16.0,18.0,95,0.00,,,0.03,WeatherCatV1.02B3,2013-02-08 19:31:00,
2013-02-08 14:36:00,38.6,37.3,30.08,NE,51,2.0,10.0,95,0.00,,,0.03,WeatherCatV1.02B3,2013-02-08 19:36:00,
2013-02-08 14:41:00,38.9,37.1,30.08,NE,55,11.0,21.0,93,0.00,,,0.03,WeatherCatV1.02B3,2013-02-08 19:41:00,
2013-02-08 14:46:00,39.5,37.4,30.08,NW,307,6.0,12.0,92,0.00,,,0.03,WeatherCatV1.02B3,2013-02-08 19:46:00,
2013-02-08 14:51:00,40.1,37.4,30.08,WNW,302,1.0,10.0,90,0.00,,,0.03,WeatherCatV1.02B3,2013-02-08 19:51:00,
2013-02-08 14:56:00,40.2,36.6,30.08,NE,48,10.0,15.0,87,0.00,,,0.03,WeatherCatV1.02B3,2013-02-08 19:56:00,
2013-02-08 15:01:00,40.3,36.7,30.07,East,82,5.0,18.0,87,0.00,,,0.03,WeatherCatV1.02B3,2013-02-08 20:01:00,
2013-02-08 15:06:00,40.6,37.0,30.08,NNW,331,1.0,13.0,87,0.00,,,0.03,WeatherCatV1.02B3,2013-02-08 20:06:00,
2013-02-08 15:11:00,40.7,36.8,30.07,NW,313,11.0,18.0,86,0.00,,,0.03,WeatherCatV1.02B3,2013-02-08 20:11:00,
2013-02-08 15:16:00,40.4,36.0,30.09,SSW,211,3.0,17.0,84,0.00,,,0.03,WeatherCatV1.02B3,2013-02-08 20:16:00,
2013-02-08 15:21:00,40.0,35.0,30.08,NE,47,6.0,16.0,82,0.00,,,0.03,WeatherCatV1.02B3,2013-02-08 20:21:00,
2013-02-08 15:26:00,40.0,35.6,30.07,NNW,334,10.0,15.0,84,0.00,,,0.03,WeatherCatV1.02B3,2013-02-08 20:26:00,
2013-02-08 15:31:00,40.2,35.5,30.07,WNW,282,11.0,14.0,83,0.00,,,0.03,WeatherCatV1.02B3,2013-02-08 20:31:00,
2013-02-08 15:36:00,40.2,34.2,30.08,NNW,341,12.0,26.0,79,0.00,,,0.03,WeatherCatV1.02B3,2013-02-08 20:36:00,
2013-02-08 15:41:00,40.4,33.8,30.08,NNE,31,9.0,27.0,77,0.00,,,0.03,WeatherCatV1.02B3,2013-02-08 20:41:00,
2013-02-08 15:46:00,40.5,33.9,30.08,NW,310,1.0,21.0,77,0.00,,,0.03,WeatherCatV1.02B3,2013-02-08 20:46:00,
2013-02-08 15:51:00,40.4,34.1,30.09,North,0,13.0,17.0,78,0.00,,,0.03,WeatherCatV1.02B3,2013-02-08 20:51:00,
2013-02-08 15:56:00,40.3,33.7,30.08,NNE,20,13.0,26.0,77,0.00,,,0.03,WeatherCatV1.02B3,2013-02-08 20:56:00,
2013-02-08 16:01:00,40.3,34.0,30.09,WNW,285,10.0,17.0,78,0.00,,,0.03,WeatherCatV1.02B3,2013-02-08 21:01:00,
2013-02-08 16:06:00,40.2,33.6,30.09,NNW,330,12.0,14.0,77,0.00,,,0.03,WeatherCatV1.02B3,2013-02-08 21:06:00,
2013-02-08 16:11:00,40.0,33.1,30.09,NE,46,14.0,31.0,76,0.00,,,0.03,WeatherCatV1.02B3,2013-02-08 21:11:00,
2013-02-08 16:16:00,39.8,33.5,30.08,NNE,28,5.0,16.0,78,0.00,,,0.03,WeatherCatV1.02B3,2013-02-08 21:16:00,
2013-02-08 16:21:00,39.6,33.6,30.08,NNW,345,2.0,15.0,79,0.00,,,0.03,WeatherCatV1.02B3,2013-02-08 21:21:00,
2013-02-08 16:26:00,39.3,33.0,30.09,NNW,343,11.0,15.0,78,0.00,,,0.03,WeatherCatV1.02B3,2013-02-08 21:26:00,
2013-02-08 16:31:00,39.0,32.4,30.10,NNE,13,6.0,17.0,77,0.00,,,0.03,WeatherCatV1.02B3,2013-02-08 21:31:00,
2013-02-08 16:36:00,38.8,31.9,30.10,NE,50,3.0,20.0,76,0.00,,,0.03,WeatherCatV1.02B3,2013-02-08 21:36:00,
2013-02-08 16:41:00,38.7,31.8,30.10,WNW,283,18.0,22.0,76,0.00,,,0.03,WeatherCatV1.02B3,2013-02-08 21:41:00,
2013-02-08 16:46:00,38.6,31.7,30.10,South,182,2.0,14.0,76,0.00,,,0.03,WeatherCatV1.02B3,2013-02-08 21:46:00,
2013-02-08 16:51:00,38.4,31.5,30.11,ESE,105,1.0,16.0,76,0.00,,,0.03,WeatherCatV1.02B3,2013-02-08 21:51:00,
2013-02-08 16:56:00,38.1,31.5,30.11,ENE,70,2.0,13.0,77,0.00,,,0.03,WeatherCatV1.02B3,2013-02-08 21:56:00,
2013-02-08 17:01:00,37.9,30.7,30.12,NNW,327,7.0,12.0,75,0.00,,,0.03,WeatherCatV1.02B3,2013-02-08 22:01:00,
2013-02-08 17:06:00,37.8,30.6,30.10,ENE,61,10.0,16.0,75,0.00,,,0.03,WeatherCatV1.02B3,2013-02-08 22:06:00,
2013-02-08 17:11:00,37.6,31.1,30.11,East,91,2.0,17.0,77,0.00,,,0.03,WeatherCatV1.02B3,2013-02-08 22:11:00,
2013-02-08 17:16:00,37.4,30.9,30.11,NNE,22,10.0,14.0,77,0.00,,,0.03,WeatherCatV1.02B3,2013-02-08 22:16:00,
2013-02-08 17:21:00,37.2,30.7,30.12,NNW,327,15.0,16.0,77,0.00,,,0.03,WeatherCatV1.02B3,2013-02-08 22:21:00,
2013-02-08 17:26:00,37.1,30.6,30.13,NE,45,13.0,14.0,77,0.00,,,0.03,WeatherCatV1.02B3,2013-02-08 22:26:00,
2013-02-08 17:31:00,37.0,30.5,30.12,North,9,18.0,20.0,77,0.00,,,0.03,WeatherCatV1.02B3,2013-02-08 22:31:00,
2013-02-08 17:36:00,36.8,30.0,30.12,NNE,30,9.0,11.0,76,0.00,,,0.03,WeatherCatV1.02B3,2013-02-08 22:36:00,
2013-02-08 17:41:00,36.5,30.0,30.12,NW,309,0.0,18.0,77,0.00,,,0.03,WeatherCatV1.02B3,2013-02-08 22:41:00,
2013-02-08 17:46:00,36.3,29.5,30.14,NNW,340,9.0,13.0,76,0.00,,,0.03,WeatherCatV1.02B3,2013-02-08 22:46:00,
2013-02-08 17:51:00,36.2,29.4,30.14,West,268,11.0,17.0,76,0.00,,,0.03,WeatherCatV1.02B3,2013-02-08 22:51:00,
2013-02-08 17:56:00,36.1,29.3,30.14,NNW,344,4.0,20.0,76,0.00,,,0.03,WeatherCatV1.02B3,2013-02-08 22:56:00,
2013-02-08 18:01:00,35.9,28.8,30.14,NW,317,3.0,15.0,75,0.00,,,0.03,WeatherCatV1.02B3,2013-02-08 23:01:00,
2013-02-08 18:06:00,35.5,29.0,30.14,NNE,27,6.0,21.0,77,0.00,,,0.03,WeatherCatV1.02B3,2013-02-08 23:06:00,
2013-02-08 18:11:00,35.1,28.9,30.14,NE,41,13.0,18.0,78,0.00,,,0.03,WeatherCatV1.02B3,2013-02-08 23:11:00,
2013-02-08 18:16:00,34.8,29.0,30.15,NW,320,8.0,16.0,79,0.00,,,0.03,WeatherCatV1.02B3,2013-02-08 23:16:00,
2013-02-08 18:21:00,34.5,29.0,30.15,NNW,327,12.0,16.0,80,0.00,,,0.03,WeatherCatV1.02B3,2013-02-08 23:21:00,
2013-02-08 18:26:00,34.4,29.2,30.15,North,349,0.0,19.0,81,0.00,,,0.03,WeatherCatV1.02B3,2013-02-08 23:26:00,
2013-02-08 18:31:00,34.3,29.1,30.15,North,0,9.0,13.0,81,0.00,,,0.03,WeatherCatV1.02B3,2013-02-08 23:31:00,
2013-02-08 18:36:00,34.0,28.8,30.16,NW,325,6.0,17.0,81,0.00,,,0.03,WeatherCatV1.02B3,2013-02-08 23:36:00,
2013-02-08 18:41:00,33.9,29.3,30.16,NNW,340,10.0,10.0,83,0.00,,,0.03,WeatherCatV1.02B3,2013-02-08 23:41:00,
2013-02-08 18:46:00,33.6,29.3,30.16,NNW,345,16.0,18.0,84,0.00,,,0.03,WeatherCatV1.02B3,2013-02-08 23:46:00,
2013-02-08 18:51:00,33.4,28.8,30.16,NW,319,7.0,8.0,83,0.00,,,0.03,WeatherCatV1.02B3,2013-02-08 23:51:00,
2013-02-08 18:57:00,33.1,28.8,30.17,NNW,336,9.0,13.0,84,0.00,,,0.03,WeatherCatV1.02B3,2013-02-08 23:57:00,
2013-02-08 19:02:00,32.9,28.6,30.17,NNE,32,10.0,15.0,84,0.00,,,0.03,WeatherCatV1.02B3,2013-02-09 00:02:00,
2013-02-08 19:07:00,32.7,28.7,30.17,North,350,13.0,18.0,85,0.00,,,0.03,WeatherCatV1.02B3,2013-02-09 00:07:00,
2013-02-08 19:12:00,32.5,28.5,30.17,North,11,5.0,7.0,85,0.00,,,0.03,WeatherCatV1.02B3,2013-02-09 00:12:00,
2013-02-08 19:17:00,32.3,28.6,30.17,North,9,13.0,24.0,86,0.00,,,0.03,WeatherCatV1.02B3,2013-02-09 00:17:00,
2013-02-08 19:22:00,32.1,28.4,30.17,NW,318,7.0,11.0,86,0.00,,,0.03,WeatherCatV1.02B3,2013-02-09 00:22:00,
2013-02-08 19:27:00,32.0,28.3,30.17,North,355,10.0,12.0,86,0.00,,,0.03,WeatherCatV1.02B3,2013-02-09 00:27:00,
2013-02-08 19:32:00,31.8,28.1,30.17,NNE,25,2.0,7.0,86,0.00,,,0.03,WeatherCatV1.02B3,2013-02-09 00:32:00,
2013-02-08 19:37:00,31.7,28.0,30.18,NNE,30,7.0,17.0,86,0.00,,,0.03,WeatherCatV1.02B3,2013-02-09 00:37:00,
2013-02-08 19:42:00,31.6,28.2,30.18,NW,308,5.0,12.0,87,0.00,,,0.03,WeatherCatV1.02B3,2013-02-09 00:42:00,
2013-02-08 19:47:00,31.5,28.1,30.18,NNW,327,5.0,14.0,87,0.00,,,0.03,WeatherCatV1.02B3,2013-02-09 00:47:00,
2013-02-08 19:52:00,31.3,27.9,30.18,NNE,15,14.0,15.0,87,0.00,,,0.03,WeatherCatV1.02B3,2013-02-09 00:52:00,
2013-02-08 19:57:00,31.2,27.8,30.18,SSE,165,0.0,14.0,87,0.00,,,0.03,WeatherCatV1.02B3,2013-02-09 00:57:00,
2013-02-08 20:02:00,31.0,27.6,30.18,NW,319,7.0,15.0,87,0.00,,,0.03,WeatherCatV1.02B3,2013-02-09 01:02:00,
2013-02-08 20:07:00,30.8,27.4,30.19,NNW,338,7.0,14.0,87,0.00,,,0.03,WeatherCatV1.02B3,2013-02-09 01:07:00,
2013-02-08 20:12:00,30.6,27.5,30.19,NW,319,7.0,13.0,88,0.00,,,0.03,WeatherCatV1.02B3,2013-02-09 01:12:00,
2013-02-08 20:17:00,30.4,27.3,30.19,NNE,23,9.0,16.0,88,0.00,,,0.03,WeatherCatV1.02B3,2013-02-09 01:17:00,
2013-02-08 20:22:00,30.3,27.2,30.19,NNE,21,12.0,16.0,88,0.00,,,0.03,WeatherCatV1.02B3,2013-02-09 01:22:00,
2013-02-08 20:27:00,30.1,27.3,30.20,North,11,11.0,11.0,89,0.00,,,0.03,WeatherCatV1.02B3,2013-02-09 01:27:00,
2013-02-08 20:32:00,30.1,27.3,30.20,NNW,336,9.0,11.0,89,0.00,,,0.03,WeatherCatV1.02B3,2013-02-09 01:32:00,
2013-02-08 20:37:00,30.0,27.2,30.20,NNE,32,3.0,11.0,89,0.00,,,0.03,WeatherCatV1.02B3,2013-02-09 01:37:00,
2013-02-08 20:42:00,29.8,27.0,30.20,NNW,345,3.0,12.0,89,0.00,,,0.03,WeatherCatV1.02B3,2013-02-09 01:42:00,
2013-02-08 20:47:00,29.7,26.9,30.20,North,5,9.0,12.0,89,0.00,,,0.03,WeatherCatV1.02B3,2013-02-09 01:47:00,
2013-02-08 20:52:00,29.6,26.8,30.21,NNW,340,10.0,23.0,89,0.00,,,0.03,WeatherCatV1.02B3,2013-02-09 01:52:00,
2013-02-08 20:57:00,29.4,26.6,30.21,North,5,14.0,22.0,89,0.00,,,0.03,WeatherCatV1.02B3,2013-02-09 01:57:00,
2013-02-08 21:02:00,29.3,26.5,30.21,North,0,8.0,14.0,89,0.00,,,0.03,WeatherCatV1.02B3,2013-02-09 02:02:00,
2013-02-08 21:07:00,29.2,26.6,30.21,NW,326,6.0,12.0,90,0.00,,,0.03,WeatherCatV1.02B3,2013-02-09 02:07:00,
2013-02-08 21:12:00,29.1,26.5,30.21,NNW,330,11.0,17.0,90,0.00,,,0.03,WeatherCatV1.02B3,2013-02-09 02:12:00,
2013-02-08 21:17:00,29.0,26.4,30.21,North,5,7.0,10.0,90,0.00,,,0.03,WeatherCatV1.02B3,2013-02-09 02:17:00,
2013-02-08 21:22:00,28.9,26.3,30.21,NNW,342,6.0,12.0,90,0.00,,,0.03,WeatherCatV1.02B3,2013-02-09 02:22:00,
2013-02-08 21:27:00,28.8,26.0,30.22,NW,313,5.0,14.0,89,0.00,,,0.03,WeatherCatV1.02B3,2013-02-09 02:27:00,
2013-02-08 21:32:00,28.8,26.2,30.22,NE,46,9.0,15.0,90,0.00,,,0.03,WeatherCatV1.02B3,2013-02-09 02:32:00,
2013-02-08 21:37:00,28.7,25.9,30.23,NNW,340,3.0,13.0,89,0.00,,,0.03,WeatherCatV1.02B3,2013-02-09 02:37:00,
2013-02-08 21:42:00,28.5,25.9,30.22,North,355,10.0,13.0,90,0.00,,,0.03,WeatherCatV1.02B3,2013-02-09 02:42:00,
2013-02-08 21:47:00,28.4,25.8,30.23,NNW,338,6.0,16.0,90,0.00,,,0.03,WeatherCatV1.02B3,2013-02-09 02:47:00,
2013-02-08 21:52:00,28.4,25.8,30.23,North,355,4.0,13.0,90,0.00,,,0.03,WeatherCatV1.02B3,2013-02-09 02:52:00,
2013-02-08 21:57:00,28.4,25.6,30.23,NNE,26,0.0,16.0,89,0.00,,,0.03,WeatherCatV1.02B3,2013-02-09 02:57:00,
2013-02-08 22:02:00,28.3,25.5,30.23,NNW,337,7.0,10.0,89,0.00,,,0.03,WeatherCatV1.02B3,2013-02-09 03:02:00,
2013-02-08 22:07:00,28.3,25.5,30.23,North,355,7.0,10.0,89,0.00,,,0.03,WeatherCatV1.02B3,2013-02-09 03:07:00,
2013-02-08 22:12:00,28.2,25.4,30.23,North,11,7.0,16.0,89,0.00,,,0.03,WeatherCatV1.02B3,2013-02-09 03:12:00,
2013-02-08 22:17:00,28.1,25.3,30.23,NW,318,3.0,16.0,89,0.00,,,0.03,WeatherCatV1.02B3,2013-02-09 03:17:00,
2013-02-08 22:22:00,28.0,25.2,30.23,NNE,13,3.0,13.0,89,0.00,,,0.03,WeatherCatV1.02B3,2013-02-09 03:22:00,
2013-02-08 22:23:00,27.9,25.1,30.23,NNE,25,0.0,5.0,89,0.00,,,0.03,WeatherCatV1.02B3,2013-02-09 03:23:00,
2013-02-08 22:28:00,27.9,25.1,30.23,NNW,336,10.0,12.0,89,0.00,,,0.03,WeatherCatV1.02B3,2013-02-09 03:28:00,
2013-02-08 22:33:00,27.9,25.1,30.23,North,349,0.0,15.0,89,0.00,,,0.03,WeatherCatV1.02B3,2013-02-09 03:33:00,
2013-02-08 22:38:00,27.9,24.8,30.23,NW,325,6.0,12.0,88,0.00,,,0.03,WeatherCatV1.02B3,2013-02-09 03:38:00,
2013-02-08 22:43:00,27.8,24.7,30.23,NNE,24,1.0,12.0,88,0.00,,,0.03,WeatherCatV1.02B3,2013-02-09 03:43:00,
2013-02-08 22:48:00,27.8,24.7,30.23,NNW,342,5.0,13.0,88,0.00,,,0.03,WeatherCatV1.02B3,2013-02-09 03:48:00,
2013-02-08 22:53:00,27.7,24.6,30.23,NE,54,6.0,18.0,88,0.00,,,0.03,WeatherCatV1.02B3,2013-02-09 03:53:00,
2013-02-08 22:58:00,27.7,24.6,30.24,North,355,10.0,12.0,88,0.00,,,0.03,WeatherCatV1.02B3,2013-02-09 03:58:00,
2013-02-08 23:03:00,27.6,24.5,30.23,NNE,23,10.0,15.0,88,0.00,,,0.03,WeatherCatV1.02B3,2013-02-09 04:03:00,
2013-02-08 23:08:00,27.5,24.4,30.23,WNW,302,3.0,16.0,88,0.00,,,0.03,WeatherCatV1.02B3,2013-02-09 04:08:00,
2013-02-08 23:13:00,27.4,24.6,30.24,NNW,331,9.0,13.0,89,0.00,,,0.03,WeatherCatV1.02B3,2013-02-09 04:13:00,
2013-02-08 23:18:00,27.2,24.4,30.24,NNE,17,5.0,16.0,89,0.00,,,0.03,WeatherCatV1.02B3,2013-02-09 04:18:00,
2013-02-08 23:23:00,27.1,24.3,30.25,NNW,346,10.0,13.0,89,0.00,,,0.03,WeatherCatV1.02B3,2013-02-09 04:23:00,
2013-02-08 23:28:00,27.0,24.2,30.25,NW,319,11.0,14.0,89,0.00,,,0.03,WeatherCatV1.02B3,2013-02-09 04:28:00,
2013-02-08 23:33:00,26.9,24.4,30.25,NNW,341,7.0,8.0,90,0.00,,,0.03,WeatherCatV1.02B3,2013-02-09 04:33:00,
2013-02-08 23:38:00,26.9,24.4,30.26,North,351,11.0,16.0,90,0.00,,,0.03,WeatherCatV1.02B3,2013-02-09 04:38:00,
2013-02-08 23:43:00,26.8,24.3,30.25,NE,49,6.0,21.0,90,0.00,,,0.03,WeatherCatV1.02B3,2013-02-09 04:43:00,
2013-02-08 23:48:00,26.7,24.2,30.25,North,0,6.0,15.0,90,0.00,,,0.03,WeatherCatV1.02B3,2013-02-09 04:48:00,
2013-02-08 23:53:00,26.6,24.1,30.24,NNE,29,9.0,13.0,90,0.00,,,0.03,WeatherCatV1.02B3,2013-02-09 04:53:00,
2013-02-08 23:58:00,26.6,24.1,30.25,North,5,6.0,15.0,90,0.00,,,0.03,WeatherCatV1.02B3,2013-02-09 04:58:00,